TANSUO 1

导读

TANSUO 1(探索一号,又名试验一号SY-1)是中国于2004年4月18日08时在西昌卫星发射中心发射的技术试验卫星,由清华大学与航天团队联合研制,属微小型纳卫星范畴,质量不足25千克。 该卫星主要承担微纳卫星关键技术验证任务,涵盖对地成像试验、微型器件搭载、轨道控制及软件在轨试验等项目,发射后按时完成全部既定试验目标,为中国微纳卫星技术发展积累了关键工程经验,NORAD编号为28220。

基本信息
目录编号:
28220
目录名称:
TANSUO 1
国际标识:
2004-012A
轨道中心:
EARTH
卫星名称:
TANSUO 1
卫星全名:
--
卫星状态:
在轨 (已飞行8122 天)
发射日期:
2004-04-18 UTC
国别 :
中国 (CN)
星等 :
--
轨道信息
数据来源 国际轨道数据 AOE轨道数据
星历时间 2026-07-14T03:06:12+0800
10小时前
查看轨道信息
2026-07-12T01:00:00+0800
2天前
查看轨道信息
半长轴 6840.754km 6840.839km
偏心率 0.0004066 0.0004239
轨道倾角 97.869° 97.870°
近地点辐角 281.846° 288.945°
升交点赤经 274.605° 272.381°
平近点角 78.233° 66.622°
近地点 459.835km 459.802km
远地点 465.399km 465.602km
周期 93.846分钟 93.848分钟
每日圈数 15.344293 15.344005
详细信息
使用方式:
暂无
2D轨道图
3D轨道图
轨道高度分析图
轨道倾角分析图
轨道综合分析图
查看轨道综合分析图